Regional Weather Roundup
Issued by NWS Grand Forks, ND

Home | Current Version | Previous Version | Graphics & Text | Print | Product List | Glossary On
Versions: 1 2 3 4 5 6 7 8 9 10 11 12 13 14 15 16 17 18 19 20 21 22 23 24 25 26 27 28 29 30 31 32 33 34 35 36 37 38 39 40 41 42 43 44 45 46 47 48 49 50
000
ASUS43 KFGF 300831
RWRFGF
PRAIRIE TO PINES  WEATHER ROUNDUP
NATIONAL WEATHER SERVICE EASTERN NORTH DAKOTA/GRAND FORKS ND
300 AM CDT THU JUL 30 2015

 **SATELLITE DATA USED TO AUGMENT SKY COVER AT AUTOMATED STATIONS**
 *****  WEATHER ACROSS EASTERN NORTH DAKOTA  *****

CITY           SKY/WX    TMP DP  RH WIND       PRES   REMARKS
GRAND FORKS    CLEAR     64  57  78 W9        29.93S
GRAND FRKS AFB CLEAR     63  57  81 W7        29.95R
GRAND FRKS NWS   N/A     61 N/A N/A W5          N/A
DEVILS LAKE    CLEAR     63  52  67 W10       29.99S
FARGO          CLEAR     62  55  77 W10       29.97S
WAHPETON ARPT  SUNNY     55  52  88 W6        30.01S
$$

 ***** WEATHER ACROSS CENTRAL AND WESTERN NORTH DAKOTA  *****

CITY           SKY/WX    TMP DP  RH WIND       PRES   REMARKS
BISMARCK       CLEAR     56  50  80 W3        30.10S
MINOT          PTCLDY    61  51  70 SW8       30.05R
JAMESTOWN      CLEAR     61  53  75 W8        30.04S
MINOT AFB      MOCLDY    58  57  96 W9        30.05R
GARRISON         N/A     58  52  80 W8        30.08R
WILLISTON      CLEAR     60  52  74 N5        30.13R
DICKINSON      CLEAR     52  45  77 S3        30.13S
HETTINGER      CLEAR     48  44  86 NW3       30.18S
$$

 *****  OTHER AIRPORT OBSERVATIONS IN OUR AREA  *****

CITY           SKY/WX    TMP DP  RH WIND       PRES   REMARKS
WALHALLA       FAIR      64  57  77 MISG      29.92S
GRAFTON AIRPOR FAIR      63  59  88 W9        29.93S
VALLEY CITY AR FAIR      59  57  94 W12       30.03S
CANDO          FAIR      55  54  94 W9        30.00S
CAVALIER APRT  FAIR      63  57  82 W10       29.92S
GWINNER        FAIR      61  54  77 W10       30.05R
SHEYENNE NWR     N/A     60  54  80 W6        29.95
ROLLA          FAIR      59  54  82 W10       30.01R
 ***** THE ABOVE OBSERVATIONS ARE NON NWS ARE NOT QUALITY
       CONTROLLED AND MAY MIS-REPORT RAIN FOR SNOW...
$$

  *****  WEATHER ACROSS NORTHERN MINNESOTA  *****

CITY           SKY/WX    TMP DP  RH WIND       PRES   REMARKS
FLAG ISLAND    CLEAR     63  57  82 W12       29.86R
WARROAD        CLEAR     57  54  88 W7        29.90R
ROSEAU         CLEAR     59  54  82 W3        29.90R
HALLOCK        CLEAR     57  55  94 W6        29.90S
THF RVR FALLS  CLEAR     61  55  82 W8        29.94R
BAUDETTE       CLEAR     58  53  84 W6        29.87S
WASKISH        CLEAR     66  57  72 W15G21    29.90R
CROOKSTON      CLEAR     61  57  88 W7        29.95R
$$
  *****  WEATHER ACROSS CENTRAL AND WEST MINNESOTA  *****

CITY           SKY/WX    TMP DP  RH WIND       PRES   REMARKS
FOSSTON        CLEAR     55  54  94 CALM      29.96S
BEMIDJI        CLEAR     60  56  87 W7        29.94R
PARK RAPIDS    CLEAR     61  55  81 W7        29.97S
ELBOW LAKE     FAIR      59  54  82 W5        30.01S
WADENA         CLEAR     61  55  82 SW5       29.99S
DETROIT LAKES  CLEAR     64  54  68 W10       30.00S
MOORHEAD       CLEAR     63  55  77 W8        29.99R
FERGUS FALLS   CLEAR     59  54  82 SW6       30.01S
MORRIS MN      CLEAR     63  54  72 W8        30.02S
STAPLES        CLEAR     63  54  72 SW8       29.98S
$$
  *****  WEATHER ELSEWHERE ACROSS MINNESOTA  *****

CITY           SKY/WX    TMP DP  RH WIND       PRES   REMARKS
DULUTH         CLEAR     60  54  80 W12       29.89R
INTRNTL FALLS  CLEAR     58  54  86 W7        29.84R
ELY            CLEAR     61  52  72 W9        29.83S
CLOQUET        CLEAR     64  54  68 W12G17    29.91S
WHEATON        CLEAR     63  54  72 SW8       30.04S
BRAINERD       CLEAR     66  56  70 W9        29.97R
HIBBING        CLEAR     63  53  70 W5        29.89R
ALEXANDRIA     CLEAR     65  55  70 W9        30.03S
SAINT CLOUD    CLEAR     63  55  75 W6        30.00R
MINNEAPOLIS    CLEAR     67  56  67 SW7       30.01S
$$

  *****  WEATHER ACROSS SOUTH DAKOTA  *****

CITY           SKY/WX    TMP DP  RH WIND       PRES   REMARKS
SIOUX FALLS    MOCLDY    62  57  83 CALM      30.12S
BROOKINGS      CLEAR     61  54  77 S5        30.13S
WATERTOWN      CLEAR     62  54  74 SW10      30.10R
HURON          CLEAR     62  54  74 SW6       30.10S
SISSETON         N/A     67  52  58 W12       30.03S
ABERDEEN       CLEAR     57  53  86 SW7       30.08S
MITCHELL       PTCLDY    60  56  86 CALM      30.12S
PIERRE         CLEAR     59  49  69 S6        30.12S
MOBRIDGE       CLEAR     56  55  97 CALM      30.11R
RAPID CITY     CLEAR     55  48  77 NW8       30.22R
$$

  *****  SOME WEATHER IN NEARBY STATES *****

CITY           SKY/WX    TMP DP  RH WIND       PRES   REMARKS
GLASGOW MT     MOCLDY    63  53  70 S6        30.11S
GREAT FALLS MT CLEAR     58  41  53 SW7       30.21S
CHEYENNE WY    CLEAR     60  47  61 SW5       30.36S
SCOTTSBLUFF NE CLEAR     61  51  70 NE7       30.25S
OMAHA NE       CLEAR     67  60  78 SE3       30.16S
DES MOINES IA  CLEAR     67  59  75 SW6       30.13S
DAVENPORT IA   CLEAR     63  60  90 W7        30.09R
CHICAGO IL     CLEAR     69  57  65 W8        30.01S
EAU CLAIRE WI  CLEAR     63  55  75 W8        29.97S
LA CROSSE WI   CLEAR     72  54  53 W13       30.01S
$$

  *****  SOME NATIONAL WEATHER *****

CITY           SKY/WX    TMP DP  RH WIND       PRES   REMARKS
LA GUARDIA NY  PTCLDY    80  71  74 SW8       29.91F
RALEIGH NC     PTCLDY    75  70  84 S3        29.97F
ATLANTA GA     CLOUDY    80  73  79 NW5       29.96F
NEW ORLEANS LA PTCLDY    78  74  87 W6        29.99S
OKLAHOMA CITY  PTCLDY    79  70  74 N8        30.11R
ALBUQUERQUE NM CLOUDY    67  57  70 E26G33    30.34F
SALT LAKE CITY PTCLDY    66  36  32 S8        30.24S
LOS ANGELES CA PTCLDY    68  63  84 VRB5      29.99S
BOISE ID       CLEAR     67  38  34 SE8       30.16S
SEATTLE WA     CLEAR     72  52  49 NE12      30.11R
$$

*** WEATHER ACROSS MANITOBA...SASKATCHEWAN AND ONTARIO ***
                ***ONTARIO***

CITY           SKY/WX    TMP DP  RH WIND       PRES   REMARKS
GERALDTON      DRZL/FOG  59  59 100 W15       29.52R VSB 1
THUNDER BAY    MOCLDY    64  57  77 W10G21    29.66R
SIOUX LOOKOUT  LGT RAIN  59  54  82 NW17G28   29.72R
TORONTO        MOCLDY    77  64  65 NW17      29.80R
BIG TROUT LK   LGT RAIN  54  52  94 NW25G36   29.44R
PICKLE LAKE    NOT AVBL
DRYDEN         CLOUDY    61  52  72 W13G26    29.77R
KENORA         PTCLDY    57  55  94 NW7       29.84R
$$
                *** MANITOBA***

CITY           SKY/WX    TMP DP  RH WIND       PRES   REMARKS
BRANDON        MOCLDY    55  55 100 W10       29.95S
DAUPHIN        PTCLDY    61  57  88 W9        29.89R
ISLAND LAKE    CLOUDY    59  55  88 NW12      29.69S
PILOT MOUND      N/A     61  55  82 W6          N/A
THE PAS        MOCLDY    59  57  94 VRB2      29.81S
THOMPSON       MOCLDY    57  54  88 NW6       29.74R
WINNIPEG       PTCLDY    55  54  94 SW2       29.89S
LYNN LAKE        N/A    N/A N/A N/A MISG        N/A
CHURCHILL      LGT RAIN  48  48 100 N18G24    29.62S VSB 1/2
GILLAM         MOCLDY    57  54  88 NW16G25   29.61F
$$
                ***SASKATCHEWAN***

CITY           SKY/WX    TMP DP  RH WIND       PRES   REMARKS
ESTEVAN        LGT RAIN  57  55  94 NW7       30.07F
KINDERSLEY     PTCLDY    48  46  93 SW3       30.14R
LLOYDMINSTER   CLEAR     50  46  87 W10       30.09R
PRINCE ALBERT  PTCLDY    57  52  82 W10       29.96R
REGINA         PTCLDY    55  54  94 W7        30.08R
YORKTON        CLEAR     57  54  88 W9        29.97R
N. BATTLEFORD  CLEAR     57  48  72 W12       30.09R
LA RONGE       MOCLDY    61  52  72 W12       29.88R
SASKATOON      PTCLDY    54  50  87 W7        30.06R
SWIFT CURRENT  MOCLDY    54  50  87 SW9       30.14R
$$
NOTE: THESE ARE AUTOMATED STATIONS WITH LIMITED QUALITY CONTROL
      "FAIR" INDICATES FEW OR NO CLOUDS BELOW 12,000 FEET WITH NO
      SIGNIFICANT WEATHER AND/OR OBSTRUCTIONS TO VISIBILITY.
      SKY/WX - SKY CONDITION AND SIGNIFICANT WEATHER.
      TMP - AIR TEMPERATURE.    DP   - DEWPOINT TEMPERATURE.
      RH  - RELATIVE HUMIDITY.  PRES - PRESSURE.
      HX  - HEAT INDEX.         WCI  - WIND CHILL INDEX.
$



USA.gov is the U.S. government's official web portal to all federal, state and local government web resources and services.